Regional Weather Roundup
Issued by NWS Charleston, SC

Current Version | Previous Version | Graphics & Text | Print | Product List | Glossary On
Versions: 1 2 3 4 5 6 7 8 9 10 11 12 13 14 15 16 17 18 19 20 21 22 23 24 25 26 27 28 29 30 31 32 33 34 35 36 37 38 39 40 41 42 43 44 45 46 47 48 49 50
012
ASUS42 KCHS 101427
RWRCHS

REGIONAL WEATHER ROUNDUP
NATIONAL WEATHER SERVICE CHARLESTON SC
900 AM EST WED FEB 10 2016

NOTE: "FAIR" INDICATES FEW OR NO CLOUDS BELOW 12,000 FEET WITH NO
SIGNIFICANT WEATHER AND/OR OBSTRUCTIONS TO VISIBILITY.

NOT ALL STATIONS ARE QUALITY CONTROLLED BY THE NATIONAL
WEATHER SERVICE. USE DATA WITH CAUTION...ESPECIALLY
DEWPOINT OBSERVATIONS.

SCZ027-030-031-034>040-042>050-101500-
...SOUTHEAST SOUTH CAROLINA...

CITY           SKY/WX    TMP DP  RH WIND       PRES   REMARKS
N CHARLESTON   SUNNY     33  16  49 W13G21    30.06R WCI  24
WATERFRONT PRK   N/A     32  18  56 NW10      29.90R WCI  24
MOUNT PLEASANT FAIR      34  18  51 W13G21    30.06S WCI  25
JOHNS ISLAND   FAIR      34  16  47 W16G29    30.06S WCI  23
PINOPOLIS        N/A     32  19  59 W18       29.96R WCI  20
MONCKS CORNER  FAIR      30  12  47 W8        30.04F WCI  23
SUMMERVILLE    FAIR      32  21  64 W12G20    30.07S WCI  23
BEAUFORT MCAS  SUNNY     33  18  53 W14G26    30.09R WCI  23
BEAUFORT ARPT  FAIR      34  21  60 W13G22    30.09S WCI  25
HILTON HEAD IS SUNNY    N/A N/A N/A W9G21     30.11R
WALTERBORO     SUNNY     34  19  55 W13G26    30.08R WCI  25
ALLENDALE      PTSUNNY   32  16  51 VRB6G16   30.07R WCI  26

...SOUTHERN MIDLANDS AND PEE DEE...

CITY           SKY/WX    TMP DP  RH WIND       PRES   REMARKS
GEORGETOWN     NOT AVBL
KINGSTREE      NOT AVBL
ORANGEBURG     MOSUNNY   31  14  49 NW17G23   30.05S WCI  19
BARNWELL       FAIR      34  19  55 W14G25    30.06S WCI  24
AIKEN          CLOUDY    30  14  51 W15G21    30.06R WCI  19
MANNING        FAIR      32  12  43 W10G18    30.05S WCI  24
COLUMBIA       MOSUNNY   31  12  45 W21G28    30.04R WCI  18
SUMTER         SUNNY     29  13  50 W16G23    30.00R WCI  18
FLORENCE       SUNNY     31  17  56 W15G24    30.01R WCI  20
MYRTLE BEACH   SUNNY     34  16  47 W16       30.04R WCI  23
N MYRTLE BEACH SUNNY     33  19  56 W12G18    30.01R WCI  24

$$

GAZ063-065-086>088-099>101-113>116-118-119-134>141-150-101500-
...SOUTHEAST GEORGIA...

CITY           SKY/WX    TMP DP  RH WIND       PRES   REMARKS
SAVANNAH ARPT  MOSUNNY   33  21  61 W16G23    30.12R WCI  23
HUNTER AAF     SUNNY     33  21  60 NW18G26   30.08S WCI  22
FORT STEWART   SUNNY     33  20  59 W17G28    30.12R WCI  21
STATESBORO     SUNNY     36  16  44 W12G22    30.11S WCI  27
SYLVANIA       SUNNY     33  21  61 NW18      30.10F WCI  22
CLAXTON        FAIR      33  23  65 W18       30.13S WCI  22

...CSRA...CENTRAL AND FAR SOUTHEAST GEORGIA...

CITY           SKY/WX    TMP DP  RH WIND       PRES   REMARKS
THOMSON        SUNNY     31  15  53 W9G22     30.13R WCI  23
AUGUSTA-BUSH   CLOUDY    32  17  54 W12       30.08R WCI  23
AUGUSTA-DANIEL NOT AVBL
SWAINSBORO     FAIR      32  18  55 W15G23    30.13R WCI  22
VIDALIA        MOSUNNY   32  21  64 W9G22     30.14S WCI  24
EASTMAN        FAIR      32  18  56 NW10      30.19R WCI  24
HAZLEHURST     FAIR      34  21  59 W13G20    30.16R WCI  25
ALMA           SUNNY     32  20  61 NW17G25   30.17R WCI  21
WAYCROSS       SUNNY     37  25  62 NW18      30.19R WCI  26
JESUP          FAIR      36  27  69 NW17      30.17R WCI  25
BAXLEY         FAIR      34  21  60 W15G24    30.17R WCI  24
BRUNSWICK      SUNNY     36  25  64 W22G30    30.16R WCI  24
SAINT SIMONS   SUNNY     35  21  56 NW16G25   30.15R WCI  25

$$

SCZ027-028-034-036>038-045-046-048>050-GAZ119-141-101500-
...LAKE AND SUPPLEMENTAL COASTAL OBSERVATIONS...

STATION/POSITION TIME  TEMP    WIND        PRES    WAVE   SWELL
                       AIR SEA DIR/SP/G            HT/PER HT/PER/DIR
                 (UTC) (F)     (DEG/KT/KT) (MB)    (FT/S) (FT/S/D)
WINYAH BAY       1345   33     280/ 11     1016.0R
LAKE MURRAY      1300   29     270/ 16/ 21 1015.6R
ACE BASIN NERRS  1345   32     280/  5     1018.0R
FORT PULASKI     1400   33 50  270/ 19/ 22 1019.7R
SAPELO ISLAND    1400   35     280/ 16     1020.0S

$$

ANZ835-935-AMZ111-154-330-350-352-354-370-450-454-472-101500-
...C-MAN AND BUOY OBSERVATIONS...

STATION/POSITION TIME  TEMP    WIND        PRES    WAVE   SWELL
                       AIR SEA DIR/SP/G            HT/PER HT/PER/DIR
                 (UTC) (F)     (DEG/KT/KT) (MB)    (FT/S) (FT/S/D)
BUOY 41004       1350   39 63  280/ 25/ 39 1016.4R   8/ 7
BUOY 41008       1350   37 54  300/ 23/ 27 1019.5R   4/ 5
FOLLY BEACH CMAN 1400   33     280/ 10/ 14 1018.1R
CAPERS NEARSHORE 1308   34     290/ 21/ 27 1016.5R
FRIPP NEARSHORE  1300   35     290/ 21/ 25 1017.8R


STATION/POSITION TIME  TEMP    WIND        PRES    WAVE   SWELL
                       AIR SEA DIR/SP/G            HT/PER HT/PER/DIR
                 (UTC) (F)     (DEG/KT/KT) (MB)    (FT/S) (FT/S/D)
5E ST. MARYS GA  1321      55                N/A     3/15   2/ 90/15
FRYING PAN BUOY  1400   40 60  270/ 19/ 25 1015.5R
BUOY 41025       1350   38 73  290/ 25/ 33 1012.1R   9/ 6   3/ 90/14
CAPE LOOKOUT NC  NOT AVBL
BUOY 41002       1350   53 68  290/ 31/ 39   N/A    19/10  10/330/15
BUOY 41010       1320   56 72              1020.1R
ST AUGUSTINE FL  1400   44 55  270/ 10/ 13 1022.8R


$$




USA.gov is the U.S. government's official web portal to all federal, state and local government web resources and services.